Flag for Costa Rica Weather past 2 weeks in San Jose, Costa Rica

Now
73 °F

Passing clouds.


Feels Like: 76 °F
Forecast: 63 / 78 °F
Wind: 13 mph from East

Location: Juan Santamaria

Current Time: Jul 31, 2014 at 10:09:58 PM

Latest Report: Jul 31, 2014 at 9:00 PM


Visibility: N/A

Pressure: 29.98 "Hg

Humidity: 69%

Dew point: 63 °F

Location of San JoseLocation

Historic Weather in San Jose — Graph

°F

San Jose temperature yesterday

Maximum temperature yesterday: 81 °F (at 2:00 PM)
Minimum temperature yesterday: 68 °F (at 5:00 AM)
Average temperature yesterday: 75 °F

Past Weeks' High & Low Weather Summary

 TemperatureHumidityPressure
High88 °F (Jul 24, 2:00 PM)94% (Jul 18, 8:00 PM)30.10 "Hg (Jul 18, 8:00 PM)
Low66 °F (Jul 28, 5:00 AM)38% (Jul 24, 12:00 PM)29.90 "Hg (Jul 24, 3:00 PM)
Average75 °F67%30.00 "Hg
* Reported Jul 16 9:00 PM — Jul 31 9:00 PM, San Jose, Weather by CustomWeather, © 2014

Note: Actual official high and low records may vary slightly from our data, if they occured in-between our weather recording intervals... More about our weather records

Advertising

San Jose weather history for previous 24 hours

 ConditionsComfort  
Time TempWeatherWind HumidityBarometerVisibility
9:00 PM
Jul 31
73 °FPassing clouds.13 mph69%29.98 "HgN/A
8:00 PM73 °FPassing clouds.2 mph83%29.99 "HgN/A
7:00 PM75 °FPassing clouds.6 mph69%29.99 "HgN/A
6:00 PM75 °FPassing clouds.14 mph65%29.96 "HgN/A
5:00 PM79 °FBroken clouds.10 mph58%29.96 "HgN/A
4:00 PM84 °FBroken clouds.13 mph48%29.94 "HgN/A
3:00 PM86 °FBroken clouds.10 mph46%29.94 "HgN/A
2:00 PM84 °FScattered clouds.12 mph48%29.96 "HgN/A
1:00 PM84 °FScattered clouds.14 mph43%29.98 "HgN/A
12:00 PM86 °FScattered clouds.13 mph43%29.99 "HgN/A
11:00 AM82 °FScattered clouds.15 mph51%30.01 "HgN/A
10:00 AM82 °FScattered clouds.14 mph48%30.02 "HgN/A
9:00 AM77 °FScattered clouds.14 mph61%30.02 "HgN/A
8:00 AM77 °FScattered clouds.13 mph61%30.01 "HgN/A
6:00 AM72 °FScattered clouds.13 mph69%29.98 "HgN/A
5:00 AM72 °FPassing clouds.16 mph69%29.97 "HgN/A
4:00 AM72 °FPassing clouds.15 mph69%29.98 "HgN/A
3:00 AM72 °FPassing clouds.12 mph73%29.99 "HgN/A
2:00 AM73 °FPassing clouds.12 mph65%29.99 "HgN/A
1:00 AM72 °FPassing clouds.15 mph73%30.01 "HgN/A
12:00 AM73 °FPassing clouds.13 mph69%30.01 "HgN/A
11:00 PM
Jul 30
73 °FPassing clouds.17 mph69%30.00 "HgN/A
10:00 PM72 °FPassing clouds.14 mph73%30.03 "HgN/A
Weather by CustomWeather, © 2014

See weather overviewHow to use our weather pages